Location: ???????
(55.2903°N, 39.1554°E)
Time: 12:27:50
(UTC+00:00)

GP-B - Pass Details

Date: 14 April 2024
Orbit: 624 x 629 km, 89.8° (Epoch: 23 May)

Event Time Altitude Azimuth Distance (km) Brightness Sun altitude
Rises 00:34:08 0° 358° (N) 2,937 7.1 -14.0°
Reaches altitude 10° 00:36:23 10° 354° (N) 2,023 6.2 -13.8°
Maximum altitude 00:40:44 57° 277° (W) 745 3.2 -13.3°
Enters shadow 00:44:10 16° 202° (SSW) 1,652 4.7 -12.9°
